Home > Weather > Mabalacat > Past weeks

Flag for Philippines Weather for the Past 2 Weeks in Mabalacat, Philippines

Now
70 °F

Passing clouds.


Feels Like: 70 °F
Forecast: 71 / 82 °F
Wind: 8 mph from Northwest

Location: Clarkfield Pampanga International Airport

Current Time: Feb 8, 2016 at 6:35:59 AM

Latest Report: Feb 8, 2016 at 5:00 AM


Visibility: N/A

Pressure: 29.98 "Hg

Humidity: 78%

Dew point: 63 °F

Location of MabalacatLocation

Historic Weather in Mabalacat — Graph

°F

Mabalacat Temperature Yesterday

Maximum temperature yesterday: 81 °F (at 11:00 AM)
Minimum temperature yesterday: 72 °F (at 5:00 AM)
Average temperature yesterday: 76 °F

High & Low Weather Summary for the Past Weeks

 TemperatureHumidityPressure
High90 °F (Jan 30, 3:00 PM)94% (Jan 29, 10:00 PM)30.18 "Hg (Jan 29, 10:00 PM)
Low70 °F (Feb 8, 3:00 AM)55% (Jan 25, 2:00 PM)29.80 "Hg (Feb 5, 3:00 PM)
Average79 °F78%30.00 "Hg
* Reported Jan 24 5:00 AM — Feb 8 5:00 AM, Mabalacat, Weather by CustomWeather, © 2016

Note: Actual official high and low records may vary slightly from our data, if they occured in-between our weather recording intervals... More about our weather records

Advertising

Mabalacat Weather History for the Previous 24 Hours

 ConditionsComfort  
Time TempWeatherWind HumidityBarometerVisibility
5:00 AM
Mon, Feb 8
70 °FPassing clouds.8 mph78%29.98 "HgN/A
4:00 AM70 °FPassing clouds.8 mph83%29.98 "HgN/A
3:00 AM70 °FPartly cloudy.8 mph83%30.01 "HgN/A
2:00 AM72 °FPartly cloudy.8 mph83%30.01 "HgN/A
1:00 AM72 °FPartly cloudy.7 mph83%30.04 "HgN/A
12:00 AM72 °FMostly cloudy.7 mph83%30.07 "HgN/A
11:00 PM
Sun, Feb 7
73 °FMostly cloudy.6 mph78%30.04 "HgN/A
10:00 PM73 °FPartly cloudy.5 mph78%30.04 "HgN/A
9:00 PM73 °FPartly cloudy.5 mph83%30.04 "HgN/A
8:00 PM75 °FPartly cloudy.6 mph78%30.01 "HgN/A
7:00 PM77 °FMostly cloudy.6 mph74%29.98 "HgN/A
6:00 PM77 °FPartly cloudy.3 mph79%29.98 "HgN/A
5:00 PM79 °FBroken clouds.8 mph74%29.95 "HgN/A
4:00 PM79 °FBroken clouds.5 mph74%29.92 "HgN/A
3:00 PM79 °FLight rain. Mostly cloudy.5 mph79%29.92 "HgN/A
2:00 PM81 °FSprinkles. Mostly cloudy.7 mph74%29.92 "HgN/A
1:00 PM81 °FBroken clouds.3 mph70%29.95 "HgN/A
12:00 PM81 °FBroken clouds.7 mph74%29.98 "HgN/A
11:00 AM81 °FBroken clouds.5 mph70%30.01 "Hg5 mi
10:00 AM79 °FBroken clouds.5 mph79%30.04 "Hg5 mi
9:00 AM75 °FBroken clouds.5 mph78%30.01 "Hg5 mi
8:00 AM73 °FBroken clouds.6 mph89%29.98 "HgN/A
7:00 AM72 °FBroken clouds.6 mph94%29.98 "HgN/A
6:00 AM72 °FMostly cloudy.7 mph94%29.98 "HgN/A
Weather by CustomWeather, © 2016

See weather overviewHow to use our weather pages